Regional Weather Roundup
Issued by NWS Boston, MA

Current Version | Previous Version | Text Only | Print | Product List | Glossary Off
Versions: 1 2 3 4 5 6 7 8 9 10 11 12 13 14 15 16 17 18 19 20 21 22 23 24 25 26 27
000 ASUS41 KBOX 240310 RWRBOX REGIONAL WEATHER ROUNDUP NATIONAL WEATHER SERVICE TAUNTON MA 1100 PM EDT FRI JUN 23 2017 NOTE: "FAIR" INDICATES FEW OR NO CLOUDS BELOW 12,000 FEET WITH NO SIGNIFICANT WEATHER AND/OR OBSTRUCTIONS TO VISIBILITY. MAZALL-240400- EASTERN MASSACHUSETTS CITY SKY/WX TMP DP RH WIND PRES REMARKS BOSTON MOCLDY 72 69 90 S10 29.62R BEVERLY CLEAR 75 71 87 SW9 29.60S LAWRENCE CLOUDY 78 71 79 SW12 29.61S BEDFORD CLOUDY 75 68 78 SW13 29.60S BLUE HILL N/A 72 68 87 S16 29.64S NORWOOD CLOUDY 75 71 87 S9 29.62S MARSHFIELD PTCLDY 73 70 88 SW10G18 29.63F PLYMOUTH CLOUDY 71 68 90 SW13 29.66F TAUNTON CLOUDY 71 68 90 SW9G18 29.65S NEW BEDFORD CLOUDY 70 68 93 SW10G23 29.66F $$ MAZALL-240400- CAPE COD AND THE ISLANDS CITY SKY/WX TMP DP RH WIND PRES REMARKS FALMOUTH N/A N/A N/A N/A MISG N/A HYANNIS CLOUDY 70 68 93 SW17G29 29.67F CHATHAM CLOUDY 69 68 96 SW13G21 29.71S PROVINCETOWN CLOUDY 67 65 93 SW20G25 29.65F FOG NANTUCKET CLOUDY 65 65 100 SW17 29.72F FOG MARTHAS VNYRD CLOUDY 69 66 90 SW18G25 29.69F FOG $$ MAZALL-240400- CENTRAL AND WESTERN MASSACHUSETTS CITY SKY/WX TMP DP RH WIND PRES REMARKS WORCESTER LGT RAIN 73 68 84 SW15 29.65S FITCHBURG N/A 77 71 82 S7 29.61F ORANGE MOCLDY 74 71 91 S9 29.61F SPRINGFIELD CLOUDY 76 70 81 S10 29.60F WESTFIELD CLOUDY 76 72 87 S9 N/A NORTH ADAMS CLOUDY 76 69 79 VRB5 29.60F PITTSFIELD CLOUDY 75 68 78 SW6 29.62F $$ RIZALL-240400- RHODE ISLAND CITY SKY/WX TMP DP RH WIND PRES REMARKS PROVIDENCE PTCLDY 73 71 93 SW12 29.65F NEWPORT FOG 67 67 100 S10 29.67F VSB 1 BLOCK ISLAND CLOUDY 68 67 96 SW18 29.68 FOG WESTERLY CLOUDY 70 68 93 SW13 29.67F $$ CTZALL-240400- CONNECTICUT CITY SKY/WX TMP DP RH WIND PRES REMARKS BRADLEY INTL CLOUDY 76 71 85 S10 29.62S HARTFORD MOCLDY 76 71 85 S6 29.62S BRIDGEPORT CLOUDY 73 68 84 SW5 29.63F DANBURY LGT RAIN 75 72 90 S7 29.65S GROTON MOCLDY 69 67 93 SW8 29.65F NEW HAVEN NOT AVBL CHESTER FAIR 73 72 94 SW8 29.66S MERIDEN CLOUDY 74 70 87 S8 29.63S WILLIMANTIC MOCLDY 77 72 84 S7 29.65S OXFORD CLOUDY 73 68 83 S8 29.66F $$ MEZ002-015-021-024-NHZ003-005-008-011-012-014-VTZ005-008-240400- NORTHERN NEW ENGLAND CITY SKY/WX TMP DP RH WIND PRES REMARKS PORTLAND ME CLOUDY 66 62 87 S5 29.56F BANGOR ME CLOUDY 64 63 96 S14G21 29.58F FOG CONCORD NH CLOUDY 75 70 84 S6 29.58S MANCHESTER NH CLOUDY 78 68 71 S9 29.57S NASHUA NH CLOUDY 76 71 85 VRB5 29.60S PORTSMOUTH NH MOCLDY 76 69 80 SW7 29.56S JAFFREY NH CLOUDY 74 72 93 S8 29.63S KEENE NH PTCLDY 76 70 82 S6 29.59F BURLINGTON VT CLOUDY 74 71 91 S10 29.50F MT. WASHINGTON FOG 55 55 100 W44 N/A VSB 0 $$ NYZ052-076-240400- EASTERN NEW YORK CITY SKY/WX TMP DP RH WIND PRES REMARKS ALBANY CLOUDY 78 69 73 S9 29.56F NEW YORK CITY CLOUDY 82 75 79 SW12 29.62F $$ ANZALL-240400- MARINE OBSERVATIONS STATION/POSITION TIME TEMP WIND PRES VSBY WAVE AIR SEA DIR/SP/G HT/PER (UTC) (F) (DEG/KT/KT) (MB) (MI) (FT/S) BOSTON BUOY 0250 64 59 170/ 10/ 12 1002.7S 2/ 4 BUZZARDS BAY 0200 66 210/ 23/ 25 1005.5R NANTUCKET SOUND 0250 65 1005.1R 3/ 4 MASS BAY-STELLWA 0204 63 60 190/ 14/ 16 1001.8R 3/ 4 ISLE OF SHOALS 0200 67 190/ 23/ 24 1001.4R S OF BLOCK IS 0255 63 N/A 6/ 6 $$ ......................KEY......................... SKY/WX - SKY CONDITION/PRESENT WEATHER TMP - TEMPERATURE IN FAHRENHEIT DWPT - DEWPOINT IN FAHRENHEIT RH - RELATIVE HUMIDITY IN PERCENT WIND - DIRECTION AND SPEED IN MPH PRES - MEAN SEA LEVEL PRESSURE IN INCHES OF HG WCI - WIND CHILL INDEX VSB - VISIBILITY IN MILES HX - HEAT INDEX TC - TEMPERATURE IN CELSIUS VRB - VARIABLE WIND DIRECTION N/A - NOT AVAILABLE

USA.gov is the U.S. government's official web portal to all federal, state and local government web resources and services.